TimeCDT,TemperatureF,Dew PointF,Humidity,Sea Level PressureIn,VisibilityMPH,Wind Direction,Wind SpeedMPH,Gust SpeedMPH,PrecipitationIn,Events,Conditions,WindDirDegrees,DateUTC
12:15 AM,53.6,39.2,58,29.93,10.0,ESE,4.6,-,N/A,,Clear,120,2012-10-01 05:15:00
12:35 AM,53.6,39.2,58,29.93,10.0,ESE,4.6,-,N/A,,Clear,120,2012-10-01 05:35:00
12:55 AM,51.8,39.2,62,29.92,10.0,ESE,4.6,-,N/A,,Clear,110,2012-10-01 05:55:00
1:15 AM,51.8,39.2,62,29.92,10.0,SE,4.6,-,N/A,,Clear,130,2012-10-01 06:15:00
1:35 AM,51.8,39.2,62,29.92,10.0,SE,5.8,-,N/A,,Clear,140,2012-10-01 06:35:00
2:15 AM,51.8,39.2,62,29.92,10.0,SE,5.8,-,N/A,,Clear,140,2012-10-01 07:15:00
2:35 AM,50.0,37.4,62,29.92,10.0,SE,5.8,-,N/A,,Clear,140,2012-10-01 07:35:00
2:55 AM,50.0,37.4,62,29.91,10.0,SE,5.8,-,N/A,,Clear,140,2012-10-01 07:55:00
3:15 AM,48.2,37.4,66,29.90,10.0,SE,5.8,-,N/A,,Clear,140,2012-10-01 08:15:00
3:35 AM,48.2,37.4,66,29.90,10.0,SE,5.8,-,N/A,,Clear,140,2012-10-01 08:35:00
3:37 AM,48.2,39.2,71,29.90,10.0,SE,5.8,-,N/A,,Clear,140,2012-10-01 08:37:00
3:55 AM,46.4,37.4,71,29.91,10.0,SE,5.8,-,N/A,,Clear,140,2012-10-01 08:55:00
3:56 AM,46.4,39.2,76,29.91,10.0,SE,5.8,-,N/A,,Clear,140,2012-10-01 08:56:00
4:15 AM,46.4,37.4,71,29.91,10.0,SE,4.6,-,N/A,,Clear,140,2012-10-01 09:15:00
4:35 AM,44.6,37.4,76,29.91,10.0,SE,4.6,-,N/A,,Clear,140,2012-10-01 09:35:00
4:55 AM,46.4,37.4,71,29.91,10.0,SE,4.6,-,N/A,,Clear,140,2012-10-01 09:55:00
5:15 AM,44.6,37.4,76,29.91,10.0,SE,5.8,-,N/A,,Clear,140,2012-10-01 10:15:00
5:35 AM,46.4,37.4,71,29.91,10.0,SE,4.6,-,N/A,,Clear,140,2012-10-01 10:35:00
5:55 AM,46.4,37.4,71,29.91,10.0,SE,5.8,-,N/A,,Clear,140,2012-10-01 10:55:00
5:57 AM,46.4,39.2,76,29.91,10.0,SE,4.6,-,N/A,,Clear,140,2012-10-01 10:57:00
6:15 AM,46.4,37.4,71,29.91,10.0,SE,4.6,-,N/A,,Clear,140,2012-10-01 11:15:00
6:35 AM,44.6,37.4,76,29.90,10.0,SSE,5.8,-,N/A,,Clear,150,2012-10-01 11:35:00
7:15 AM,44.6,37.4,76,29.90,10.0,SE,3.5,-,N/A,,Clear,140,2012-10-01 12:15:00
7:35 AM,46.4,39.2,76,29.90,10.0,SE,4.6,-,N/A,,Clear,140,2012-10-01 12:35:00
7:55 AM,46.4,39.2,76,29.90,10.0,SSE,3.5,-,N/A,,Clear,150,2012-10-01 12:55:00
8:15 AM,50.0,39.2,66,29.90,10.0,SSE,5.8,-,N/A,,Clear,150,2012-10-01 13:15:00
8:35 AM,50.0,39.2,66,29.91,10.0,SSE,6.9,-,N/A,,Clear,160,2012-10-01 13:35:00
8:55 AM,51.8,39.2,62,29.91,10.0,SSE,4.6,-,N/A,,Clear,160,2012-10-01 13:55:00
9:15 AM,53.6,39.2,58,29.91,10.0,South,6.9,-,N/A,,Clear,170,2012-10-01 14:15:00
9:35 AM,55.4,39.2,54,29.91,10.0,South,5.8,-,N/A,,Clear,180,2012-10-01 14:35:00
9:55 AM,55.4,39.2,54,29.91,10.0,South,6.9,-,N/A,,Clear,180,2012-10-01 14:55:00
9:57 AM,57.2,39.2,51,29.91,10.0,South,8.1,-,N/A,,Clear,180,2012-10-01 14:57:00
10:15 AM,59.0,39.2,48,29.91,10.0,South,8.1,-,N/A,,Clear,170,2012-10-01 15:15:00
10:35 AM,60.8,37.4,42,29.91,10.0,South,8.1,-,N/A,,Clear,190,2012-10-01 15:35:00
10:55 AM,62.6,37.4,39,29.91,10.0,SW,6.9,-,N/A,,Clear,220,2012-10-01 15:55:00
11:15 AM,62.6,37.4,39,29.90,10.0,SSW,6.9,-,N/A,,Clear,210,2012-10-01 16:15:00
11:35 AM,64.4,37.4,37,29.90,10.0,SW,6.9,-,N/A,,Clear,230,2012-10-01 16:35:00
11:55 AM,64.4,35.6,34,29.89,10.0,SW,5.8,-,N/A,,Clear,220,2012-10-01 16:55:00
12:15 PM,64.4,35.6,34,29.89,10.0,South,5.8,-,N/A,,Clear,190,2012-10-01 17:15:00
12:17 PM,66.2,37.4,35,29.89,10.0,South,4.6,-,N/A,,Clear,170,2012-10-01 17:17:00
12:35 PM,66.2,35.6,32,29.88,10.0,SSW,5.8,-,N/A,,Clear,200,2012-10-01 17:35:00
1:15 PM,68.0,35.6,30,29.87,10.0,SW,8.1,-,N/A,,Clear,220,2012-10-01 18:15:00
1:35 PM,68.0,35.6,30,29.86,10.0,SW,5.8,-,N/A,,Clear,220,2012-10-01 18:35:00
1:37 PM,69.8,37.4,31,29.86,10.0,SSW,4.6,-,N/A,,Clear,200,2012-10-01 18:37:00
1:55 PM,68.0,35.6,30,29.86,10.0,WSW,5.8,-,N/A,,Clear,240,2012-10-01 18:55:00
2:15 PM,69.8,35.6,28,29.85,10.0,Calm,Calm,-,N/A,,Clear,0,2012-10-01 19:15:00
2:35 PM,69.8,35.6,28,29.85,10.0,South,4.6,-,N/A,,Clear,190,2012-10-01 19:35:00
2:37 PM,71.6,37.4,29,29.85,10.0,SW,3.5,-,N/A,,Clear,230,2012-10-01 19:37:00
2:55 PM,71.6,35.6,27,29.84,10.0,WNW,5.8,-,N/A,,Clear,300,2012-10-01 19:55:00
3:15 PM,69.8,35.6,28,29.84,10.0,SSW,5.8,-,N/A,,Clear,210,2012-10-01 20:15:00
3:17 PM,71.6,37.4,29,29.84,10.0,SSW,4.6,-,N/A,,Clear,210,2012-10-01 20:17:00
3:35 PM,71.6,35.6,27,29.84,10.0,WNW,9.2,-,N/A,,Clear,300,2012-10-01 20:35:00
4:15 PM,71.6,37.4,29,29.83,10.0,North,4.6,-,N/A,,Clear,350,2012-10-01 21:15:00
4:35 PM,71.6,37.4,29,29.83,10.0,North,8.1,-,N/A,,Clear,350,2012-10-01 21:35:00
4:55 PM,71.6,37.4,29,29.83,10.0,NNW,5.8,-,N/A,,Clear,340,2012-10-01 21:55:00
5:15 PM,71.6,39.2,31,29.83,10.0,North,5.8,-,N/A,,Clear,10,2012-10-01 22:15:00
5:35 PM,69.8,39.2,33,29.83,10.0,North,5.8,-,N/A,,Clear,360,2012-10-01 22:35:00
5:55 PM,69.8,39.2,33,29.83,10.0,North,8.1,-,N/A,,Clear,10,2012-10-01 22:55:00
5:57 PM,69.8,39.2,33,29.83,10.0,North,8.1,-,N/A,,Clear,10,2012-10-01 22:57:00
6:15 PM,68.0,39.2,35,29.84,10.0,North,6.9,-,N/A,,Clear,360,2012-10-01 23:15:00
6:35 PM,64.4,41.0,42,29.84,10.0,North,5.8,-,N/A,,Clear,360,2012-10-01 23:35:00
6:55 PM,64.4,42.8,45,29.85,7.0,NNW,11.5,-,N/A,,Clear,340,2012-10-01 23:55:00
7:15 PM,62.6,42.8,48,29.85,10.0,North,10.4,-,N/A,,Clear,350,2012-10-02 00:15:00
7:35 PM,62.6,42.8,48,29.85,10.0,North,9.2,-,N/A,,Clear,350,2012-10-02 00:35:00
7:55 PM,60.8,44.6,55,29.86,10.0,North,8.1,-,N/A,,Clear,360,2012-10-02 00:55:00
7:57 PM,60.8,44.6,55,29.86,10.0,North,8.1,-,N/A,,Clear,360,2012-10-02 00:57:00
8:15 PM,59.0,44.6,59,29.86,10.0,North,6.9,-,N/A,,Clear,360,2012-10-02 01:15:00
8:17 PM,60.8,44.6,55,29.86,10.0,North,5.8,-,N/A,,Clear,360,2012-10-02 01:17:00
8:35 PM,57.2,44.6,63,29.87,10.0,North,5.8,-,N/A,,Clear,360,2012-10-02 01:35:00
8:55 PM,59.0,44.6,59,29.88,10.0,NNW,5.8,-,N/A,,Clear,340,2012-10-02 01:55:00
9:15 PM,55.4,44.6,67,29.88,10.0,NNW,5.8,-,N/A,,Clear,340,2012-10-02 02:15:00
9:35 PM,55.4,44.6,67,29.88,10.0,North,6.9,-,N/A,,Clear,350,2012-10-02 02:35:00
9:55 PM,55.4,44.6,67,29.88,10.0,North,8.1,-,N/A,,Clear,350,2012-10-02 02:55:00
9:57 PM,55.4,44.6,67,29.88,10.0,North,8.1,-,N/A,,Clear,350,2012-10-02 02:57:00
10:15 PM,53.6,44.6,72,29.88,10.0,North,6.9,-,N/A,,Clear,360,2012-10-02 03:15:00
10:35 PM,53.6,44.6,72,29.88,10.0,North,8.1,-,N/A,,Clear,360,2012-10-02 03:35:00
11:15 PM,53.6,44.6,72,29.89,10.0,North,8.1,-,N/A,,Clear,360,2012-10-02 04:15:00
11:35 PM,53.6,44.6,72,29.89,10.0,North,8.1,-,N/A,,Clear,360,2012-10-02 04:35:00
11:55 PM,53.6,44.6,72,29.89,10.0,North,9.2,-,N/A,,Clear,350,2012-10-02 04:55:00
11:57 PM,53.6,46.4,77,29.89,10.0,North,9.2,-,N/A,,Clear,350,2012-10-02 04:57:00